Snowfall_Accumulation
0.0 0.0 0.0 0.0 0.0 0.0 0.0 0.0 11.5 0.0 0.0 11.5 12.5 7.0 3.4 1.8 0.1 0.0 0.1 0.0 0.1 0.7 0.4 0.4 0.1 0.3 0.0 0.0 0.0 1.1 1.2 4.2 3.8 0.0 0.0 0.0 0.0 4.0 6.5 14.3 13.5 12.4 9.5 10.1
0.0 0.0 0.0 0.0 0.0 0.0 0.0 2.5 8.3 0.0 0.0 19.0 17.4 8.0 7.0 4.9 3.8 2.9 3.3 2.4 0.0 0.0 0.5 1.3 0.5 0.7 0.0 0.0 0.0 1.6 1.8 3.4 3.9 1.5 0.3 0.0 2.9 4.0 4.5 6.1 10.0 9.2 10.0 8.4
0.0 0.0 0.0 0.0 0.0 0.0 0.0 3.2 19.0 7.9 0.0 4.1 2.1 6.1 7.0 6.6 0.0 2.3 0.0 3.5 0.0 2.0 3.6 1.4 1.6 0.4 0.0 0.0 0.0 0.0 0.0 1.6 2.5 2.6 0.7 0.5 0.7 1.1 2.8 6.9 7.1 4.8 3.9 2.8
0.0 0.0 0.0 0.0 0.0 0.0 0.0 4.0 11.7 0.0 14.7 11.9 3.5 2.0 2.4 2.9 5.1 3.1 0.0 3.6 0.4 0.7 4.3 3.3 2.1 0.5 0.0 0.0 0.0 0.0 0.4 1.7 0.5 1.1 0.0 0.0 0.1 0.0 0.0 0.2 0.7 3.1 0.8 0.2
0.0 0.0 0.0 0.0 0.0 0.0 0.0 12.2 6.2 0.0 0.6 0.6 2.4 1.9 4.2 2.1 3.2 4.4 3.5 2.1 2.2 0.6 1.1 0.5 1.5 0.7 0.1 0.1 0.0 0.0 0.0 1.9 0.7 0.3 0.0 0.1 0.0 0.0 0.0 0.0 0.0 0.0 0.0 0.0
0.0 0.0 0.0 0.0 0.0 0.0 1.7 0.0 0.0 0.0 1.4 1.2 1.9 3.1 3.0 2.1 1.5 2.7 0.2 0.8 2.5 3.0 0.5 0.0 0.3 0.0 0.0 0.0 0.4 0.6 0.6 1.8 1.0 0.3 0.0 0.2 0.1 0.0 0.0 0.0 0.0 0.1 0.1 0.0
0.0 0.0 0.0 0.0 0.0 0.0 0.0 0.0 0.0 1.5 5.7 3.1 2.6 1.4 1.0 1.3 1.1 1.6 0.0 0.1 1.0 0.0 0.0 0.0 0.0 0.0 0.0 0.0 0.0 0.0 0.3 0.2 0.2 0.1 0.0 0.1 0.1 0.0 0.0 0.0 0.0 0.0 0.1 0.0
0.0 0.0 0.0 0.0 0.0 0.0 0.0 0.0 0.0 0.0 6.5 3.1 2.7 2.1 2.3 2.0 1.4 1.0 0.9 0.0 0.0 0.0 0.0 1.4 1.7 1.3 0.9 0.7 0.0 0.0 0.0 0.0 0.2 0.2 0.0 0.0 0.0 0.0 0.1 0.3 0.3 0.0 0.2 0.0
0.0 0.0 0.0 0.0 0.0 0.0 0.0 0.0 0.0 0.0 3.1 4.4 0.6 2.1 0.1 2.6 3.8 5.0 4.3 0.0 0.0 0.0 0.7 0.5 0.5 0.5 0.3 0.2 0.1 0.0 0.0 0.1 0.4 0.2 0.7 0.0 0.0 0.0 0.0 0.2 0.5 0.0 0.1 0.0
0.0 0.0 0.0 0.0 0.0 0.0 0.0 0.0 0.0 0.0 2.2 0.0 0.0 1.2 3.4 0.0 0.1 2.5 2.3 2.0 1.1 0.0 0.3 0.3 0.2 0.1 0.1 0.0 0.0 0.1 0.2 2.7 4.5 2.7 2.0 0.0 0.5 0.2 0.0 0.4 0.3 0.2 0.0 0.0
0.0 0.0 0.0 0.0 0.0 0.0 0.0 0.0 0.0 0.0 3.4 0.2 0.0 0.0 0.0 1.2 0.0 1.1 1.3 0.7 0.6 0.3 0.8 0.1 0.1 0.0 0.0 0.0 0.0 0.0 0.0 0.6 1.7 1.6 4.2 2.9 0.0 1.0 2.6 0.9 0.0 0.2 0.0 0.0
0.0 0.0 0.0 0.0 0.0 0.0 0.0 0.0 0.0 0.0 0.0 0.5 0.0 0.0 0.0 0.0 0.0 0.0 0.0 0.0 0.0 0.0 0.0 0.7 0.0 0.6 0.0 0.0 0.0 0.0 0.4 0.4 1.2 1.4 1.8 0.5 0.2 0.1 0.0 0.0 0.0 0.0 0.0 0.0
0.0 0.0 0.0 0.0 0.0 0.0 0.0 0.0 0.0 0.0 0.3 0.1 0.0 0.0 0.0 0.0 0.0 0.0 0.0 0.0 0.0 0.0 0.0 0.2 0.0 0.0 0.0 0.0 0.0 0.0 0.0 0.0 0.4 0.3 0.0 0.0 0.0 0.0 0.0 0.0 0.0 0.0 0.0 0.0
0.0 0.0 0.0 0.0 0.0 0.0 0.0 0.0 0.0 0.0 0.0 1.1 1.4 0.0 0.0 0.0 0.0 0.0 0.0 0.0 0.0 0.0 0.0 0.0 0.0 0.0 0.0 0.0 0.0 0.0 0.0 0.0 0.0 0.0 0.0 0.0 0.0 0.0 0.0 0.0 0.0 0.0 0.0 0.0
0.0 0.0 0.0 0.0 0.0 0.0 0.0 0.0 0.0 0.0 0.0 0.8 0.9 0.0 0.0 0.0 0.0 0.0 0.0 0.0 0.0 0.0 0.0 0.0 0.0 0.0 0.0 0.0 0.0 0.0 0.0 0.0 0.0 0.0 0.0 0.0 0.0 0.0 0.0 0.0 0.0 0.0 0.0 0.0
0.0 0.0 0.0 0.0 0.0 0.0 0.0 4.2 0.0 0.0 0.0 0.2 0.6 0.0 0.0 0.0 0.0 0.0 0.0 0.0 0.0 0.0 0.0 0.0 0.0 0.0 0.3 0.4 0.0 0.0 0.0 0.0 0.0 0.0 0.0 0.0 0.0 0.0 0.0 0.0 0.0 0.0 0.0 0.0
0.0 0.0 0.0 0.0 0.0 0.0 1.4 0.1 0.0 0.0 0.0 0.0 0.0 0.5 0.0 0.0 0.0 0.0 0.0 0.0 0.0 0.3 0.6 0.3 0.0 0.0 0.7 2.1 0.7 0.0 0.0 0.0 0.1 0.0 0.0 0.0 0.0 0.0 0.0 0.0 0.0 0.0 0.0 0.0
0.0 0.0 0.0 0.0 0.0 0.0 0.2 0.0 0.0 0.0 0.0 0.0 0.2 0.5 0.3 0.0 0.5 1.4 0.0 0.2 0.0 0.0 0.0 0.1 0.1 0.2 1.3 1.9 0.0 0.0 0.2 0.1 0.1 0.0 0.0 0.0 0.0 0.0 0.0 0.0 0.0 0.0 0.0 0.0
0.0 0.0 0.0 0.0 0.0 2.2 0.0 0.0 0.0 0.0 0.0 0.0 0.1 0.2 0.7 0.0 0.4 0.1 0.7 0.0 0.8 0.0 0.4 0.0 0.3 1.3 1.8 0.0 0.1 0.0 0.0 0.5 0.0 0.0 0.0 0.0 0.0 0.0 0.0 0.0 0.0 0.0 0.0 0.8
0.0 0.0 10.3 13.3 2.9 0.0 0.0 0.0 2.3 0.5 0.0 0.0 0.6 0.4 0.5 0.1 0.3 0.3 0.3 0.4 0.9 0.4 0.1 0.1 0.7 0.0 0.1 0.8 0.2 0.0 0.0 0.1 0.0 0.0 0.0 0.0 0.0 0.0 0.0 0.0 0.4 1.9 1.6 0.5
0.0 4.2 6.3 0.0 0.0 0.0 2.2 4.9 2.3 0.5 0.3 0.0 0.6 0.9 0.2 0.0 0.8 0.1 0.3 0.6 0.5 0.9 0.5 0.6 0.7 1.6 4.1 0.5 0.0 0.2 0.0 0.0 0.1 0.0 0.0 0.0 0.3 0.0 0.0 0.6 1.3 1.9 1.5 0.8
0.0 0.0 0.0 0.0 3.3 2.1 0.3 1.0 0.9 0.0 0.5 0.0 0.4 0.7 1.0 0.5 0.0 1.2 0.4 0.3 0.5 0.9 1.8 2.2 1.0 7.6 3.5 0.0 0.4 0.8 0.3 0.6 0.9 1.5 3.1 1.3 1.1 0.5 1.2 1.1 0.3 0.1 0.1 0.3
0.0 0.0 0.0 0.4 1.9 1.1 0.1 0.0 0.4 0.8 0.2 0.1 0.0 0.4 0.6 0.7 0.4 0.5 0.2 1.0 0.3 0.2 1.2 0.3 2.3 4.3 2.5 0.5 1.1 1.2 1.9 2.7 3.7 3.2 2.3 2.6 1.0 0.4 0.0 0.1 0.1 0.1 0.0 0.0
0.3 0.1 0.2 0.1 0.3 0.8 0.8 1.1 1.2 0.7 0.1 0.1 0.3 0.2 0.3 0.9 0.4 0.2 0.6 0.1 0.2 0.7 0.8 2.0 1.3 1.1 0.6 0.0 0.2 0.7 0.2 0.1 0.0 0.1 0.0 0.0 0.0 0.0 0.0 0.0 0.0 0.0 0.0 0.0
0.4 0.0 0.2 0.3 0.3 0.0 0.0 0.1 0.1 0.0 0.0 0.1 0.3 0.0 0.1 0.1 0.0 0.3 0.0 0.0 0.2 0.4 6.0 1.7 0.1 0.0 0.0 0.0 0.0 0.0 0.0 0.0 0.0 0.0 0.0 0.0 0.0 0.0 0.0 0.0 0.0 0.0 0.0 0.0
0.0 0.0 0.1 0.0 0.0 0.0 0.0 0.0 0.0 0.0 0.0 0.1 0.8 0.5 0.2 0.8 0.7 0.3 0.0 0.3 0.4 3.9 1.6 0.0 0.0 0.0 0.0 0.0 0.0 0.0 0.0 0.0 0.0 0.0 0.0 0.0 0.0 0.0 0.0 0.0 0.0 0.0 0.0 0.0
0.0 0.2 0.0 0.0 0.0 0.0 0.6 0.0 0.1 0.0 0.1 0.7 1.0 0.0 0.2 0.2 0.8 0.3 0.0 0.5 1.1 0.5 0.0 0.0 0.0 0.0 0.0 0.0 0.0 0.0 0.0 0.0 0.0 0.0 0.0 0.0 0.0 0.0 0.0 0.0 0.0 0.0 0.0 0.0